This is the latest recevied weather packets stored in our database for station/object KD9ZDW. If no packets are shown the sender has not sent any weather packets the latest 10 day(s).
| Time | Temp. | Humidity | Pressure | Rain* | Wind** | Luminosity | Snow |
|---|---|---|---|---|---|---|---|
| 1777553873 | 6.67° C | 77% | 1018.2 hPa | 0 mm | - | 188 W/m² | - |
| 1777553569 | 6.67° C | 78% | 1018.5 hPa | 0 mm | - | 213 W/m² | - |
| 1777553264 | 6.67° C | 78% | 1018.2 hPa | 0 mm | - | 83 W/m² | - |
| 1777552962 | 6.67° C | 78% | 1018.5 hPa | 0 mm | - | 192 W/m² | - |
| 1777552656 | 6.11° C | 79% | 1018.5 hPa | 0 mm | - | 177 W/m² | - |
| 1777552353 | 6.11° C | 78% | 1018.2 hPa | 0 mm | - | 163 W/m² | - |
| 1777552050 | 6.11° C | 79% | 1018.6 hPa | 0 mm | - | 150 W/m² | - |
| 1777551747 | 6.11° C | 79% | 1018.3 hPa | 0 mm | - | 44 W/m² | - |
| 1777551444 | 6.11° C | 80% | 1018.1 hPa | 0 mm | - | 121 W/m² | - |
| 1777551141 | 6.11° C | 80% | 1018.1 hPa | 0 mm | - | 88 W/m² | - |
| 1777550839 | 6.11° C | 80% | 1018.1 hPa | 0 mm | - | 102 W/m² | - |
| 1777550535 | 5.56° C | 81% | 1018 hPa | 0 mm | - | 40 W/m² | - |
| 1777550231 | 5.56° C | 82% | 1017.9 hPa | 0 mm | - | 81 W/m² | - |
| 1777549927 | 5.56° C | 83% | 1018 hPa | 0 mm | - | 72 W/m² | - |
| 1777549623 | 5° C | 84% | 1017.9 hPa | 0 mm | - | 64 W/m² | - |
| 1777549319 | 5° C | 85% | 1017.8 hPa | 0 mm | - | 54 W/m² | - |
| 1777549017 | 4.44° C | 86% | 1017.9 hPa | 0 mm | - | 46 W/m² | - |
| 1777548712 | 4.44° C | 86% | 1017.9 hPa | 0 mm | - | 27 W/m² | - |
| 1777548410 | 5° C | 86% | 1017.7 hPa | 0 mm | - | 24 W/m² | - |
| 1777548107 | 5° C | 86% | 1017.9 hPa | 0 mm | - | 19 W/m² | - |
| 1777547802 | 5° C | 85% | 1017.7 hPa | 0 mm | - | 17 W/m² | - |
| 1777547499 | 5° C | 86% | 1017.5 hPa | 0 mm | - | 16 W/m² | - |
| 1777547197 | 5° C | 85% | 1017.7 hPa | 0 mm | - | 12 W/m² | - |
| 1777546894 | 5° C | 85% | 1017.7 hPa | 0 mm | - | 8 W/m² | - |
| 1777546591 | 5.56° C | 85% | 1017.9 hPa | 0 mm | - | 5 W/m² | - |
* Rain latest hour (hover to see other rain measurements)
** Current wind speed in m/s (hover to see current wind gust speed)